User: anonymous   Login
Location: Unspecified
(0.0000°N, 0.0000°E)
Time: 17:24:47
(UTC+02:00)
Language:

Iridium 75 - Orbit

View from above orbital plane
View from above orbital plane
View from above satellite
View from above satellite

Ground track
Ground track

The orbit data is extracted from the following two-line orbital elements,

1 25346U 98032E   14295.48745022  .00000440  00000-0  15006-3 0   304
2 25346 086.3943 268.9715 0002219 102.1458 013.1281 14.34220904860827
Epoch (UTC): 22 October 2014 11:41:55
Eccentricity: 0.0002219
inclination: 86.3943°
perigee height: 776 km
apogee height: 779 km
right ascension of ascending node: 268.9715°
argument of perigee: 102.1458°
revolutions per day: 14.34220904
mean anomaly at epoch: 13.1281°
orbit number at epoch: 86082

The dashed part of the orbit path shows where the satellite is in the earth's shadow,  

DLR